CW6391 Weather Reports


Display with metric or nautical units.
time (UTC)temp
F
wind
direction
speed
MPH
gust
MPH
rain 1hr
in
rain 24hr
in
rain mn
in
humidity
%
barometer
mb
20260904092107 75 227 2.0 8.0 0.00 0.20 0.00 57 1016.3
20260904091607 75 236 3.0 11.0 0.00 0.20 0.00 57 1016.3
20260904091107 74 258 3.0 11.0 0.00 0.20 0.00 58 1016.3
20260904090607 74 264 2.0 8.0 0.00 0.20 0.00 59 1016.3
20260904090107 74 213 1.0 5.0 0.00 0.20 0.00 62 1016.3
20260904085610 73 232 1.0 5.0 0.00 0.20 0.00 62 1016.3
20260904085111 72 183 0.0 5.0 0.00 0.20 0.00 64 1016.7
20260904084610 71 242 2.0 6.0 0.00 0.20 0.00 65 1016.7
20260904084107 71 199 2.0 9.0 0.00 0.20 0.00 65 1016.7
20260904083610 70 199 4.0 7.0 0.00 0.20 0.00 67 1016.7
20260904083107 70 171 2.0 3.0 0.00 0.20 0.00 68 1016.7
20260904082610 70 201 0.0 4.0 0.00 0.20 0.00 69 1016.7
20260904082111 69 167 1.0 4.0 0.00 0.20 0.00 70 1016.7
20260904081607 69 246 1.0 4.0 0.00 0.20 0.00 70 1017.1
20260904081110 69 247 2.0 5.0 0.00 0.20 0.00 70 1017.1
20260904080610 69 258 1.0 3.0 0.00 0.20 0.00 70 1017.1
20260904080110 69 271 1.0 3.0 0.00 0.20 0.00 71 1017.1
20260904075610 69 259 1.0 4.0 0.00 0.20 0.00 71 1017.1
20260904075113 69 247 1.0 4.0 0.00 0.20 0.00 71 1017.1
20260904074610 68 273 1.0 4.0 0.00 0.20 0.00 71 1017.1
20260904074110 68 213 0.0 4.0 0.00 0.20 0.00 72 1017.1
20260904073607 68 220 1.0 4.0 0.00 0.20 0.00 72 1017.4
20260904073107 68 205 1.0 5.0 0.00 0.20 0.00 72 1017.4
20260904072607 67 236 1.0 4.0 0.00 0.20 0.00 72 1017.4
20260904072108 67 241 1.0 3.0 0.00 0.20 0.00 73 1017.4
20260904071611 67 253 1.0 5.0 0.00 0.20 0.00 73 1017.4
20260904071110 67 247 1.0 4.0 0.00 0.20 0.00 74 1017.4
20260904070608 66 199 0.0 4.0 0.00 0.20 0.00 75 1017.4
20260904070107 66 241 0.0 4.0 0.00 0.20 0.00 76 1017.4
20260904065610 65 242 2.0 4.0 0.00 0.20 0.00 77 1017.4
20260904065114 65 247 1.0 4.0 0.00 0.20 0.00 77 1017.4
20260904064610 64 247 0.0 3.0 0.00 0.20 0.00 79 1017.1
20260904064107 64 275 1.0 2.0 0.00 0.20 0.00 80 1017.4
20260904063613 64 237 1.0 2.0 0.00 0.20 0.00 80 1017.4
20260904063107 63 196 1.0 3.0 0.00 0.20 0.00 81 1017.1
20260904062607 63 192 1.0 2.0 0.00 0.20 0.00 81 1017.4
20260904062110 63 173 0.0 2.0 0.00 0.20 0.00 82 1017.4
20260904061607 62 168 1.0 2.0 0.00 0.20 0.00 83 1017.4
20260904061107 62 158 0.0 2.0 0.00 0.20 0.00 84 1017.4
20260904060608 62 122 0.0 2.0 0.00 0.20 0.00 84 1017.4
20260904060107 61 212 0.0 1.0 0.00 0.20 0.00 85 1017.4
20260904055611 61 168 0.0 2.0 0.00 0.20 0.00 84 1017.4
20260904055107 61 138 0.0 1.0 0.00 0.20 0.00 85 1017.4
20260904054611 61 336 0.0 1.0 0.00 0.20 0.00 85 1017.4
20260904054107 60 170 0.0 1.0 0.00 0.20 0.00 85 1017.4
20260904053607 60 207 0.0 1.0 0.00 0.20 0.00 86 1017.4
20260904053110 60 213 0.0 1.0 0.00 0.20 0.00 86 1017.4
20260904052616 60 63 0.0 1.0 0.00 0.20 0.00 86 1017.4
20260904052107 60 301 0.0 1.0 0.00 0.20 0.00 86 1017.4
20260904051613 60 315 0.0 1.0 0.00 0.20 0.00 86 1017.4
20260904051107 60 142 0.0 1.0 0.00 0.20 0.00 86 1017.4
20260904050607 60 162 0.0 1.0 0.00 0.20 0.00 87 1017.4
20260904050113 59 171 1.0 1.0 0.00 0.20 0.00 87 1017.4
20260904045613 59 107 0.0 2.0 0.00 0.20 0.00 87 1017.4
20260904045110 59 165 1.0 2.0 0.00 0.20 0.00 87 1017.4
20260904044611 59 143 0.0 2.0 0.00 0.20 0.00 88 1017.4
20260904044107 59 96 1.0 2.0 0.00 0.20 0.00 88 1017.4
20260904043610 59 57 0.0 2.0 0.00 0.20 0.00 88 1017.4
20260904043116 59 53 1.0 3.0 0.00 0.20 0.00 88 1017.4
20260904042607 59 41 1.0 3.0 0.00 0.20 0.00 88 1017.7
20260904042107 59 115 0.0 2.0 0.00 0.20 0.00 88 1017.7
20260904041608 58 138 1.0 1.0 0.00 0.20 0.00 88 1017.7
20260904041113 58 103 0.0 1.0 0.00 0.20 0.00 88 1017.7
20260904040607 58 155 0.0 1.0 0.00 0.20 0.00 88 1017.7
20260904040107 58 260 0.0 1.0 0.00 0.20 0.00 88 1017.7
20260904035607 58 333 0.0 2.0 0.00 0.20 0.00 88 1017.7
20260904035107 58 72 2.0 2.0 0.00 0.20 0.00 89 1017.7
20260904034610 58 86 1.0 2.0 0.00 0.20 0.00 89 1017.7
20260904034116 58 47 1.0 3.0 0.00 0.20 0.00 89 1017.7
20260904033611 58 85 0.0 3.0 0.00 0.20 0.00 89 1017.7
20260904033113 58 40 0.0 3.0 0.00 0.20 0.00 89 1017.7
20260904032610 58 70 1.0 3.0 0.00 0.20 0.00 89 1017.7
20260904032111 58 85 1.0 2.0 0.00 0.20 0.00 89 1017.7
20260904031607 58 109 0.0 2.0 0.00 0.20 0.00 89 1017.7
20260904031110 58 185 0.0 2.0 0.00 0.20 0.00 89 1017.7
20260904030610 58 77 1.0 2.0 0.00 0.20 0.00 89 1017.7
20260904030107 58 58 0.0 3.0 0.00 0.20 0.00 89 1017.7
20260904025610 58 79 1.0 3.0 0.00 0.20 0.00 90 1017.7
20260904025107 58 87 1.0 2.0 0.00 0.20 0.00 90 1018.1
20260904024610 58 297 1.0 1.0 0.00 0.20 0.00 90 1018.1
20260904024107 58 147 0.0 2.0 0.00 0.20 0.00 90 1018.1
20260904023607 58 160 0.0 2.0 0.00 0.20 0.00 89 1018.1
20260904023107 58 202 0.0 2.0 0.00 0.20 0.00 89 1018.1
20260904022610 58 181 0.0 2.0 0.00 0.20 0.00 89 1018.1
20260904022110 59 101 1.0 2.0 0.00 0.20 0.00 89 1018.1
20260904021607 59 74 0.0 2.0 0.00 0.20 0.00 89 1018.1
20260904021107 59 179 1.0 2.0 0.00 0.20 0.00 89 1018.1
20260904020607 59 86 1.0 2.0 0.00 0.20 0.00 89 1018.1
20260904020110 59 53 1.0 2.0 0.00 0.20 0.00 89 1018.1
20260904015608 59 51 0.0 1.0 0.00 0.20 0.00 89 1018.1
20260904015110 59 139 0.0 2.0 0.00 0.20 0.00 89 1018.1
20260904014607 59 52 1.0 2.0 0.00 0.20 0.00 89 1018.1
20260904014107 59 139 0.0 1.0 0.00 0.20 0.00 89 1018.4
20260904013613 59 131 1.0 1.0 0.00 0.20 0.00 89 1018.4
20260904013107 59 204 0.0 1.0 0.00 0.20 0.00 89 1018.4
20260904012607 60 179 0.0 1.0 0.00 0.20 0.00 89 1018.1
20260904012107 60 187 1.0 2.0 0.00 0.20 0.00 89 1018.1
20260904011610 60 129 0.0 2.0 0.00 0.20 0.00 89 1018.1
20260904011107 60 90 0.0 2.0 0.00 0.20 0.00 88 1018.1
20260904010607 60 169 0.0 1.0 0.00 0.20 0.00 88 1018.4
20260904010113 60 161 1.0 3.0 0.00 0.20 0.00 89 1018.4
20260904005616 60 157 0.0 3.0 0.00 0.20 0.00 89 1018.4
20260904005110 60 76 2.0 3.0 0.00 0.20 0.00 89 1018.4
20260904004610 60 68 1.0 3.0 0.00 0.20 0.00 88 1018.4
20260904004110 60 86 0.0 2.0 0.00 0.20 0.00 88 1018.4
20260904003607 60 114 0.0 3.0 0.00 0.20 0.00 89 1018.4
20260904003110 60 347 1.0 2.0 0.00 0.20 0.00 89 1018.8
20260904002607 60 10 0.0 3.0 0.00 0.20 0.00 89 1018.8
20260904002110 60 88 1.0 4.0 0.00 0.20 0.00 89 1018.8
20260904001613 60 45 1.0 2.0 0.00 0.20 0.00 89 1018.8
20260904001110 60 161 1.0 3.0 0.00 0.20 0.00 89 1018.8
20260904000607 61 68 1.0 3.0 0.00 0.20 0.00 89 1018.8
20260904000110 61 172 0.0 1.0 0.00 0.20 0.00 89 1018.8
20260903235610 61 33 0.0 1.0 0.00 0.20 0.00 89 1018.8
20260903235107 61 178 0.0 3.0 0.00 0.20 0.00 89 1019.2
20260903234607 61 138 1.0 2.0 0.00 0.20 0.00 89 1019.2
20260903234113 61 98 1.0 2.0 0.00 0.20 0.00 89 1019.2
20260903233613 61 32 0.0 2.0 0.00 0.20 0.00 89 1019.2
20260903233107 61 73 1.0 2.0 0.00 0.20 0.00 88 1019.2
20260903232608 61 167 0.0 2.0 0.00 0.20 0.00 88 1019.2
20260903232110 61 148 1.0 2.0 0.00 0.20 0.00 88 1019.2
20260903231610 61 121 0.0 2.0 0.00 0.20 0.00 88 1019.5
20260903231107 61 252 0.0 2.0 0.00 0.20 0.00 88 1019.5
20260903230610 61 109 1.0 3.0 0.00 0.20 0.00 88 1019.2
20260903230107 62 84 2.0 3.0 0.00 0.20 0.00 88 1019.2
20260903225607 62 104 1.0 3.0 0.00 0.20 0.00 88 1019.2
20260903225113 62 86 1.0 1.0 0.00 0.20 0.00 88 1019.5
20260903224613 62 78 0.0 3.0 0.00 0.20 0.00 88 1019.5
20260903224107 62 162 2.0 3.0 0.00 0.20 0.00 88 1019.5
20260903223607 62 103 1.0 2.0 0.00 0.20 0.00 88 1019.5
20260903223110 62 119 1.0 2.0 0.00 0.20 0.00 88 1019.5
20260903222607 62 269 0.0 3.0 0.00 0.20 0.00 87 1019.5
20260903222107 62 161 1.0 3.0 0.00 0.20 0.00 87 1019.5
20260903221607 62 136 0.0 2.0 0.00 0.20 0.00 87 1019.5
20260903221107 62 38 1.0 3.0 0.00 0.20 0.00 87 1019.5
20260903220611 62 16 1.0 4.0 0.00 0.20 0.00 87 1019.5
20260903220107 62 63 1.0 2.0 0.00 0.20 0.00 87 1019.5
20260903215607 62 152 0.0 3.0 0.00 0.20 0.00 87 1019.2
20260903215113 62 168 1.0 3.0 0.00 0.20 0.00 87 1019.2
20260903214607 62 154 0.0 2.0 0.00 0.20 0.00 86 1019.2
20260903214107 62 211 0.0 5.0 0.00 0.20 0.00 86 1019.5
20260903213610 63 165 3.0 5.0 0.00 0.20 0.00 86 1019.2
20260903213107 63 187 2.0 3.0 0.00 0.20 0.00 86 1019.5
20260903212607 63 207 1.0 3.0 0.00 0.20 0.00 86 1019.2
20260903212113 63 187 0.0 2.0 0.00 0.20 0.00 86 1019.5
20260903211613 63 167 0.0 3.0 0.00 0.20 0.00 86 1019.5
20260903211107 63 136 0.0 2.0 0.00 0.20 0.00 86 1019.5
20260903210610 63 151 0.0 2.0 0.00 0.20 0.00 85 1019.5
20260903210107 63 119 1.0 2.0 0.00 0.20 0.00 86 1019.5
20260903205613 63 4 1.0 2.0 0.00 0.20 0.00 86 1019.5
20260903205113 63 348 0.0 2.0 0.00 0.20 0.00 86 1019.5
20260903204613 63 233 0.0 2.0 0.00 0.20 0.00 86 1019.5
20260903204107 62 154 0.0 2.0 0.00 0.20 0.00 86 1019.5
20260903203611 62 71 0.0 2.0 0.00 0.20 0.00 86 1019.5
20260903203107 62 130 1.0 2.0 0.00 0.20 0.00 86 1019.5
20260903202607 62 170 1.0 3.0 0.00 0.20 0.00 86 1019.5
20260903202108 62 73 1.0 3.0 0.00 0.20 0.00 87 1019.5
20260903201610 62 345 0.0 2.0 0.00 0.20 0.00 86 1019.5
20260903201107 62 221 0.0 3.0 0.00 0.20 0.00 87 1019.5
20260903200607 62 334 1.0 4.0 0.00 0.20 0.00 87 1019.2
20260903200107 62 130 1.0 2.0 0.00 0.20 0.00 86 1019.2
20260903195610 62 54 1.0 3.0 0.00 0.20 0.00 86 1019.2
20260903195108 62 66 2.0 5.0 0.00 0.20 0.00 86 1019.2
20260903194607 63 79 3.0 4.0 0.00 0.20 0.00 86 1019.2
20260903194107 63 81 1.0 3.0 0.00 0.20 0.00 86 1019.2
20260903193613 63 92 1.0 2.0 0.00 0.20 0.00 86 1019.2
20260903193107 63 112 1.0 2.0 0.00 0.20 0.00 86 1019.2
20260903192610 63 122 1.0 3.0 0.00 0.20 0.00 86 1019.5
20260903192110 63 124 0.0 2.0 0.00 0.20 0.00 86 1019.5
20260903191610 63 175 0.0 1.0 0.00 0.20 0.00 86 1019.5
20260903191107 63 187 0.0 2.0 0.00 0.20 0.00 86 1019.5
20260903190607 63 107 1.0 2.0 0.00 0.20 0.00 86 1019.2
20260903190110 63 136 0.0 3.0 0.00 0.20 0.00 86 1019.5
20260903185613 63 75 2.0 3.0 0.00 0.20 0.00 86 1019.5
20260903185107 63 123 1.0 2.0 0.00 0.20 0.00 86 1019.5
20260903184610 63 183 0.0 3.0 0.00 0.20 0.00 87 1019.5
20260903184107 63 1 1.0 5.0 0.00 0.20 0.00 86 1019.2
20260903183608 63 316 2.0 4.0 0.00 0.20 0.00 86 1019.5
20260903183110 63 105 1.0 3.0 0.00 0.20 0.00 86 1019.5
20260903182607 63 86 1.0 3.0 0.00 0.20 0.00 86 1019.5
20260903182107 63 93 1.0 3.0 0.00 0.20 0.00 86 1019.2
20260903181613 63 137 1.0 4.0 0.00 0.20 0.00 86 1019.2
20260903181111 63 144 0.0 3.0 0.00 0.20 0.00 86 1019.2
20260903180608 63 164 1.0 4.0 0.00 0.20 0.00 86 1019.2
20260903180107 63 150 1.0 4.0 0.00 0.20 0.00 86 1019.2
20260903175607 63 88 2.0 4.0 0.00 0.20 0.00 86 1019.2
20260903175110 63 68 3.0 4.0 0.00 0.20 0.00 86 1019.2
20260903174610 63 65 1.0 3.0 0.00 0.20 0.00 86 1019.2
20260903174107 63 66 1.0 2.0 0.00 0.20 0.00 85 1019.2
20260903173607 63 180 1.0 4.0 0.00 0.20 0.00 85 1019.2
20260903173116 63 165 1.0 4.0 0.00 0.20 0.00 85 1019.2
20260903172607 63 197 1.0 5.0 0.00 0.20 0.00 85 1018.8
20260903172108 63 158 1.0 4.0 0.00 0.20 0.00 85 1018.8
20260903171611 63 97 1.0 3.0 0.00 0.20 0.00 85 1019.2
20260903171107 63 127 1.0 2.0 0.00 0.20 0.00 85 1019.2
20260903170607 63 131 1.0 3.0 0.00 0.20 0.00 85 1019.2
20260903170107 63 165 2.0 4.0 0.00 0.20 0.00 85 1019.2
20260903165610 63 188 1.0 3.0 0.00 0.20 0.00 85 1019.2
20260903165113 63 189 1.0 3.0 0.00 0.20 0.00 85 1019.5
20260903164607 63 164 1.0 4.0 0.00 0.20 0.00 85 1019.5
20260903164114 63 162 2.0 4.0 0.00 0.20 0.00 85 1019.5
20260903163610 63 150 1.0 4.0 0.00 0.20 0.00 86 1019.5
20260903163107 63 189 0.0 4.0 0.00 0.20 0.00 86 1019.5
20260903162607 63 181 2.0 4.0 0.00 0.20 0.00 85 1019.5
20260903162110 63 195 2.0 4.0 0.01 0.20 0.00 85 1019.5
20260903161610 63 152 0.0 3.0 0.01 0.20 0.00 85 1019.5
20260903161110 63 133 2.0 4.0 0.01 0.20 0.00 84 1019.5
20260903160610 63 168 0.0 3.0 0.01 0.20 0.00 84 1019.8
20260903160107 63 140 1.0 2.0 0.01 0.20 0.00 83 1019.5
20260903155607 63 150 1.0 2.0 0.01 0.20 0.00 84 1019.5
20260903155108 63 91 0.0 2.0 0.01 0.20 0.00 85 1019.8
20260903154610 63 212 1.0 2.0 0.01 0.20 0.00 85 1019.8
20260903154113 62 359 1.0 3.0 0.01 0.20 0.00 84 1019.8
20260903153607 62 348 1.0 4.0 0.04 0.20 0.00 84 1019.8
20260903153110 62 9 2.0 5.0 0.07 0.20 0.00 84 1019.8
20260903152611 63 349 2.0 5.0 0.10 0.20 0.00 83 1019.8
20260903152110 63 353 1.0 4.0 0.10 0.19 0.00 84 1019.8
20260903151607 63 357 2.0 6.0 0.11 0.19 0.00 83 1019.8
20260903151110 63 66 2.0 6.0 0.12 0.19 0.00 83 1019.8
20260903150610 63 11 2.0 5.0 0.12 0.19 0.00 83 1019.8
20260903150107 63 333 1.0 4.0 0.12 0.18 0.00 83 1019.5
20260903145610 63 57 2.0 4.0 0.13 0.18 0.00 82 1019.5
20260903145107 63 131 1.0 4.0 0.13 0.18 0.00 84 1019.5
20260903144613 63 185 1.0 4.0 0.13 0.18 0.00 83 1019.5
20260903144113 63 73 1.0 3.0 0.13 0.18 0.00 82 1019.8
20260903143613 64 349 0.0 3.0 0.11 0.15 0.00 81 1019.8
20260903143110 64 220 1.0 5.0 0.08 0.12 0.00 79 1020.2
20260903142607 64 285 1.0 4.0 0.05 0.10 0.00 79 1020.2
20260903142107 65 247 0.0 2.0 0.03 0.08 0.00 80 1020.2
20260903141610 65 311 1.0 4.0 0.03 0.07 0.00 80 1020.5
20260903141110 65 341 0.0 3.0 0.03 0.06 0.00 79 1020.5
20260903140611 65 325 0.0 4.0 0.04 0.06 0.00 79 1020.2
20260903140107 65 286 0.0 2.0 0.03 0.06 0.00 78 1020.2
20260903135607 66 312 0.0 2.0 0.04 0.05 0.00 76 1020.2
20260903135113 66 279 0.0 1.0 0.04 0.05 0.00 75 1019.8
20260903134616 66 322 0.0 3.0 0.04 0.05 0.00 73 1020.2
20260903134116 66 322 1.0 2.0 0.04 0.05 0.00 73 1019.8
20260903133608 66 300 0.0 2.0 0.03 0.04 0.00 73 1019.8
20260903133107 67 314 1.0 2.0 0.04 0.04 0.00 71 1019.8
20260903132613 67 311 0.0 2.0 0.04 0.04 0.00 72 1020.2
20260903132110 67 297 0.0 2.0 0.04 0.04 0.00 70 1020.2
20260903131613 67 324 1.0 5.0 0.04 0.04 0.00 66 1020.2
20260903131107 68 247 2.0 7.0 0.03 0.03 0.00 65 1020.2
20260903130616 68 283 1.0 8.0 0.02 0.02 0.00 62 1020.2
20260903130108 69 285 2.0 7.0 0.02 0.02 0.00 59 1020.2
20260903125610 69 314 2.0 12.0 0.01 0.01 0.00 57 1020.2
20260903125107 70 267 3.0 11.0 0.01 0.01 0.00 56 1020.2
20260903124610 70 272 4.0 7.0 0.00 0.00 0.00 56 1020.2
20260903124108 71 226 1.0 4.0 0.00 0.00 0.00 60 1019.8
20260903123613 71 287 2.0 6.0 0.00 0.00 0.00 52 1019.8
20260903123110 72 276 2.0 11.0 0.00 0.00 0.00 48 1019.8
20260903122607 73 251 1.0 5.0 0.00 0.00 0.00 45 1019.8
20260903122110 73 187 1.0 8.0 0.00 0.00 0.00 46 1019.5
20260903121610 73 234 3.0 9.0 0.00 0.00 0.00 45 1019.8
20260903121113 73 197 1.0 10.0 0.00 0.00 0.00 45 1019.8
20260903120609 73 242 3.0 13.0 0.00 0.00 0.00 45 1019.8
20260903120107 73 255 1.0 11.0 0.00 0.00 0.00 45 1019.8
20260903115610 73 260 4.0 11.0 0.00 0.00 0.00 43 1020.2
20260903115111 73 242 2.0 10.0 0.00 0.00 0.00 43 1020.2
20260903114616 74 195 2.0 13.0 0.00 0.00 0.00 43 1020.2
20260903114111 74 282 5.0 13.0 0.00 0.00 0.00 40 1020.5
20260903113607 76 235 3.0 7.0 0.00 0.00 0.00 39 1020.5
20260903113110 76 246 3.0 8.0 0.00 0.00 0.00 40 1020.2
20260903112614 75 238 2.0 8.0 0.00 0.00 0.00 41 1020.2
20260903112110 74 214 3.0 8.0 0.00 0.00 0.00 42 1020.5
20260903111607 74 263 2.0 7.0 0.00 0.00 0.00 42 1020.2
20260903111110 74 245 2.0 8.0 0.00 0.00 0.00 42 1020.5
20260903110611 74 281 3.0 9.0 0.00 0.00 0.00 42 1020.5
20260903110107 74 217 2.0 9.0 0.00 0.00 0.00 44 1020.5
20260903105607 72 245 2.0 8.0 0.00 0.00 0.00 45 1020.5
20260903105110 72 245 3.0 7.0 0.00 0.00 0.00 44 1020.5
20260903104607 72 223 2.0 8.0 0.00 0.00 0.00 45 1020.5
20260903104113 71 249 3.0 9.0 0.00 0.00 0.00 45 1020.5
20260903103607 71 253 5.0 10.0 0.00 0.00 0.00 44 1020.5
20260903103113 71 258 2.0 10.0 0.00 0.00 0.00 43 1020.5
20260903102607 71 226 3.0 12.0 0.00 0.00 0.00 43 1020.5
20260903102107 72 224 1.0 11.0 0.00 0.00 0.00 43 1020.9
20260903101607 72 259 5.0 11.0 0.00 0.00 0.00 41 1020.9
20260903101110 72 242 4.0 10.0 0.00 0.00 0.00 42 1020.9
20260903100607 72 287 4.0 12.0 0.00 0.00 0.00 42 1020.9
20260903100110 72 261 6.0 13.0 0.00 0.00 0.00 41 1020.9
20260903095610 73 257 3.0 10.0 0.00 0.00 0.00 41 1020.9
20260903095108 73 249 2.0 11.0 0.00 0.00 0.00 41 1020.9
20260903094610 73 252 3.0 8.0 0.00 0.00 0.00 41 1020.9
20260903094113 73 267 1.0 10.0 0.00 0.00 0.00 42 1020.9
20260903093607 72 186 3.0 8.0 0.00 0.00 0.00 42 1020.9
20260903093107 72 241 2.0 8.0 0.00 0.00 0.00 41 1020.9
20260903092609 73 265 2.0 7.0 0.00 0.00 0.00 41 1020.9